GFSGBSN_925_thetae_000.txt.gz
Theta_e
313 313 312 312 309 309 309 309 309 309 309 309 309 310 310 311 311 312 313 313 314 317 319 319 321 317 325 335 331 325 321 315 315 321 328 327 327 327 327 330 335 338 339 338 340 340 339
312 313 313 312 310 308 308 308 309 309 309 309 309 310 310 311 311 311 313 313 314 317 319 321 320 317 329 335 329 322 320 319 319 327 327 326 326 327 328 331 333 335 339 340 338 339 337
312 312 312 312 310 308 307 307 308 308 307 308 309 309 309 310 311 311 312 313 314 316 318 322 319 323 331 332 329 328 322 324 325 329 327 325 326 328 329 332 334 333 334 339 339 338 338
310 312 311 311 310 308 307 307 307 307 306 307 308 308 308 310 310 311 312 313 313 316 318 322 320 327 332 328 327 328 327 329 329 327 326 327 327 330 333 333 336 338 337 340 339 338 337
310 310 311 311 311 309 307 306 306 306 306 307 307 308 308 309 310 311 312 313 313 319 319 322 327 331 331 326 327 326 329 329 327 326 325 328 332 333 334 335 337 337 339 337 342 343 336
309 309 309 310 309 307 304 303 304 305 305 306 307 308 309 309 310 311 313 314 319 320 327 327 328 332 332 331 328 327 328 329 328 326 326 328 330 334 333 335 340 335 338 342 346 341 336
308 309 309 308 308 308 305 304 304 305 305 306 307 308 309 310 311 311 313 321 330 335 329 331 331 324 329 331 329 329 327 328 328 327 326 327 329 331 332 334 334 335 337 336 344 339 336
308 308 308 308 308 307 305 304 304 304 304 305 306 308 309 310 311 312 313 326 321 319 322 323 324 325 324 329 332 329 326 327 328 329 327 327 327 329 331 331 331 334 334 335 336 336 336
307 307 308 308 308 306 305 304 304 304 304 305 306 307 309 311 311 314 320 321 319 320 323 323 324 324 324 325 329 330 328 327 329 330 330 328 328 328 327 328 328 330 332 334 334 334 336
306 306 307 307 308 306 304 304 303 304 304 305 306 307 308 310 315 319 319 321 318 320 323 323 324 324 324 324 323 325 328 328 330 331 331 331 330 328 326 326 326 327 331 331 331 332 334
306 306 306 306 305 305 304 304 304 304 304 305 305 306 307 308 312 318 320 319 318 321 326 325 324 323 324 322 325 324 329 329 330 331 330 331 330 327 326 326 326 325 330 331 332 332 332
305 305 305 303 303 304 304 304 304 305 305 305 306 307 307 314 317 317 317 317 319 323 324 325 325 324 324 323 323 325 328 330 331 331 331 330 329 328 327 327 327 327 328 331 331 329 331
305 304 303 303 302 304 303 303 303 304 305 306 306 307 308 310 318 317 317 318 321 324 324 323 324 324 323 324 323 324 324 329 331 331 331 332 329 328 328 327 328 328 329 332 333 332 333
304 304 304 302 301 303 304 303 303 304 304 305 307 308 308 309 313 316 317 319 324 325 323 324 324 324 324 324 325 324 325 328 330 331 332 333 333 329 329 327 327 329 330 332 337 337 338
304 304 304 302 301 303 304 303 303 303 305 305 307 313 315 315 313 316 319 320 322 324 325 323 323 322 323 323 325 325 326 327 330 330 335 332 332 332 330 329 328 328 329 330 332 332 337
304 304 304 303 301 304 303 303 303 303 304 306 309 314 317 317 317 316 319 319 320 321 323 322 321 321 322 323 324 325 327 328 329 330 330 332 333 331 330 331 330 328 329 331 329 335 337
303 303 302 303 302 303 304 302 302 302 305 308 313 321 318 317 316 318 318 318 319 320 321 320 321 321 322 322 325 325 325 328 328 329 330 330 331 331 330 329 329 329 327 330 332 333 335
302 303 302 304 302 301 304 302 301 301 303 309 315 319 319 318 318 317 319 318 318 320 321 320 319 320 321 323 324 326 326 327 329 328 329 329 329 331 332 329 329 330 330 331 335 341 336
302 302 302 303 303 303 303 302 301 301 302 305 317 319 320 319 320 318 318 318 319 319 320 319 319 319 321 322 324 326 327 327 328 328 330 330 330 331 333 332 331 330 329 331 334 341 342
302 302 303 301 302 303 303 301 301 301 302 306 318 318 319 320 320 319 320 321 320 320 320 320 320 320 319 321 323 325 327 327 328 328 343 335 336 334 332 334 336 332 331 330 333 336 334
301 302 303 302 301 301 303 301 300 301 305 308 318 319 321 321 319 319 319 322 324 321 320 320 320 320 321 322 322 323 326 330 327 330 330 333 344 336 332 334 335 336 334 331 329 332 332
301 302 301 302 302 302 303 301 300 301 307 312 318 319 320 321 322 324 321 320 324 325 322 321 319 321 321 325 325 326 325 328 329 330 333 334 341 338 336 334 333 334 334 332 329 328 330
302 301 301 302 303 303 303 301 300 300 304 312 312 313 316 318 320 321 324 324 321 323 324 321 323 322 321 324 324 325 325 331 331 332 336 338 339 345 340 334 334 336 333 335 331 330 331
301 301 301 301 302 302 301 301 300 300 300 305 310 310 316 316 317 318 322 321 323 324 324 324 322 325 326 328 329 327 328 331 334 335 336 345 348 342 340 340 340 338 340 340 339 333 331
301 300 300 300 300 300 300 300 301 299 299 303 307 309 315 318 318 322 324 324 327 326 323 324 324 324 326 327 329 330 329 331 332 332 335 341 344 342 342 340 337 342 341 338 341 335 335
299 299 299 299 299 299 300 300 300 299 299 301 307 306 310 316 317 320 321 323 327 327 326 324 324 325 325 326 328 333 334 331 330 331 332 334 345 341 344 339 339 338 340 340 341 339 347
298 298 298 298 299 299 299 300 300 300 299 300 305 305 307 313 315 317 318 323 322 325 329 329 327 325 324 325 327 328 329 331 331 332 334 336 339 339 335 338 338 341 342 340 339 349 348
298 298 298 298 298 298 299 299 299 299 299 299 303 305 305 309 311 312 314 316 318 322 329 329 330 327 327 324 324 324 327 329 337 337 341 338 341 337 338 339 339 339 338 337 353 348 351
297 298 299 299 298 298 299 299 299 299 299 298 304 304 303 304 309 307 308 309 310 315 319 325 325 329 329 330 328 331 334 334 342 337 336 342 342 343 347 350 348 350 352 349 347 348 351

GFSGBSN_925_thetae_003.txt.gz
Theta_e
313 314 312 311 308 308 308 308 309 309 309 309 309 310 310 310 311 311 311 313 313 314 317 318 320 317 326 333 334 326 328 325 318 317 321 330 328 325 323 324 325 330 335 337 342 338 338
313 313 313 312 310 308 307 307 308 308 308 308 309 309 309 310 310 311 311 312 313 314 315 318 320 318 328 337 328 324 318 315 316 320 325 327 325 325 324 324 326 331 332 333 338 337 337
311 312 312 312 309 308 308 307 307 307 306 307 307 308 309 309 310 310 311 312 313 313 315 319 319 322 330 332 328 323 317 318 319 323 327 327 325 324 325 328 328 332 333 331 335 337 337
310 310 311 311 310 308 307 306 306 306 306 307 307 308 309 309 310 310 311 312 313 313 318 321 320 327 331 331 329 324 322 323 322 328 329 326 326 325 328 330 333 331 332 335 338 338 339
310 310 310 309 308 307 305 304 305 305 305 306 307 308 309 310 310 311 311 312 313 316 319 323 327 329 333 328 326 328 326 327 328 328 325 325 328 330 332 332 330 332 334 341 340 337 338
309 309 309 309 309 307 304 305 305 305 305 306 307 308 310 310 311 311 312 313 320 323 326 326 328 330 331 331 327 327 327 328 327 325 324 326 327 329 328 329 331 334 341 344 341 342 336
308 309 309 309 310 307 304 304 304 304 305 305 306 308 309 311 312 312 312 316 324 333 327 333 330 326 326 330 327 327 325 328 327 325 324 326 326 326 328 328 330 330 331 342 342 341 338
308 308 308 309 308 307 305 304 304 304 304 305 306 307 308 310 312 313 312 320 319 318 318 320 321 323 325 328 330 328 326 327 327 326 325 324 323 325 328 329 329 328 327 329 333 339 337
306 306 307 306 306 305 304 304 304 304 304 305 305 306 307 309 312 316 318 320 319 319 319 321 321 321 323 323 330 330 326 325 326 327 327 324 325 326 326 325 325 324 325 326 330 330 332
306 306 304 304 305 304 304 304 304 305 305 305 305 306 307 308 313 315 318 320 318 318 321 323 321 322 322 322 322 328 326 325 326 327 328 328 328 328 327 325 324 321 324 325 329 328 329
305 305 305 304 302 304 303 303 304 304 305 305 306 306 307 307 309 315 317 318 317 318 327 326 323 325 322 322 323 323 327 325 326 327 329 330 330 329 329 326 324 322 323 324 331 328 327
304 305 304 303 302 303 304 303 303 304 304 305 306 306 307 310 314 316 318 318 317 322 326 325 322 321 321 321 322 323 326 326 327 327 328 330 329 328 325 326 325 326 325 326 330 327 326
304 304 305 302 301 304 303 303 303 303 304 305 306 306 306 308 313 315 316 317 319 323 324 322 322 322 321 321 321 321 327 329 329 329 330 330 329 328 328 327 325 326 326 326 330 330 329
304 304 305 304 302 304 304 303 303 303 304 305 306 306 308 308 307 313 316 318 322 323 320 321 322 323 323 322 322 322 322 329 328 328 329 330 330 330 327 326 325 327 325 327 333 336 336
304 304 304 303 303 303 303 303 302 303 304 304 306 308 313 315 308 311 317 319 321 322 323 322 322 322 322 322 322 323 321 322 322 326 328 331 333 332 330 327 325 325 329 326 327 329 329
303 303 303 304 303 302 304 302 301 302 303 306 309 311 314 316 316 315 318 319 319 319 319 320 321 322 322 322 320 320 323 323 324 325 327 327 331 331 331 327 327 325 327 327 326 329 332
303 303 302 303 303 304 304 302 301 301 303 307 311 319 320 317 315 315 316 317 317 318 318 320 320 320 321 322 321 320 324 325 326 326 327 327 328 329 330 331 330 329 327 326 326 328 327
303 303 303 301 301 302 304 302 301 301 302 305 312 319 317 317 317 316 316 317 315 317 318 318 320 319 319 320 320 322 324 325 325 327 326 327 331 331 330 328 328 328 327 326 328 332 336
302 302 303 302 301 301 303 302 301 300 301 303 312 318 318 318 319 317 316 316 316 317 318 318 320 320 318 318 322 326 327 326 326 328 330 332 326 329 328 329 329 328 327 329 332 334 332
302 302 301 300 301 302 303 302 300 300 302 304 312 322 319 320 319 320 320 319 319 318 317 318 319 320 319 318 320 325 324 326 326 332 338 332 335 327 327 335 335 335 333 328 328 331 329
302 302 301 301 303 303 303 301 299 300 304 306 315 321 319 322 321 322 322 319 319 321 323 319 320 321 320 320 319 322 323 322 324 331 328 331 336 338 336 335 331 334 333 334 332 328 333
302 302 301 302 302 302 301 300 299 300 307 310 316 316 315 317 320 322 323 325 323 320 322 323 320 320 319 321 324 324 323 325 330 329 329 331 337 339 339 338 336 336 335 337 335 330 327
301 301 301 301 301 301 301 300 300 300 302 308 310 310 313 315 317 317 320 322 322 322 319 322 323 320 319 319 327 326 324 324 331 338 335 336 334 342 338 339 339 336 339 340 339 336 333
299 301 301 300 300 300 300 301 300 299 299 301 307 308 314 316 316 316 319 322 324 326 327 325 322 325 325 326 326 327 324 325 329 332 336 345 349 339 339 342 345 337 339 338 338 343 344
299 300 300 300 299 299 300 300 300 299 299 300 304 307 311 316 315 317 320 320 323 325 327 327 324 326 323 325 327 330 329 329 330 331 331 338 344 344 346 342 341 338 341 338 343 350 344
298 299 299 299 298 299 299 300 299 299 298 299 303 306 307 312 315 313 317 320 321 323 326 328 327 324 324 325 326 331 332 331 333 331 329 331 339 342 341 345 346 338 338 337 339 350 349
297 298 298 298 298 299 299 300 299 299 299 298 302 304 305 309 311 312 317 315 315 319 325 328 328 330 323 324 325 327 326 327 332 333 331 331 335 342 339 342 338 336 337 339 342 353 352
298 298 299 299 299 298 298 299 299 299 299 298 300 303 303 304 306 308 309 313 314 318 325 324 329 327 328 326 324 325 325 326 329 332 335 333 331 331 337 338 337 353 347 350 354 351 349
298 297 298 298 298 298 298 299 299 298 298 298 301 300 300 301 304 304 304 306 308 310 311 323 325 325 331 332 329 330 330 336 341 342 342 345 345 348 344 348 347 345 351 349 349 348 347

GFSGBSN_925_thetae_006.txt.gz
Theta_e
313 313 312 312 310 308 307 308 308 308 307 308 308 308 309 309 309 310 311 311 312 312 313 315 319 318 323 331 331 329 326 323 322 316 318 320 328 327 323 322 322 324 326 329 334 339 338
311 312 312 312 311 309 307 307 307 307 306 307 307 308 308 309 309 310 310 311 311 312 313 315 319 319 329 332 330 326 327 323 316 318 322 324 326 323 323 322 323 324 327 330 334 335 337
310 310 311 309 310 308 306 306 306 306 306 307 308 308 309 309 310 310 310 310 311 312 313 316 320 322 327 321 327 323 319 316 316 318 323 326 326 323 322 324 328 330 330 330 335 336 336
310 310 309 310 310 308 305 305 305 305 305 306 307 308 309 310 310 311 311 311 311 312 314 318 321 326 320 327 327 322 318 320 319 319 326 328 328 322 325 328 330 332 330 335 335 336 337
309 309 310 310 309 307 304 304 305 305 305 305 307 307 308 310 311 311 312 312 313 318 319 320 329 329 330 326 324 325 324 325 322 321 324 326 325 326 329 330 327 326 330 338 335 335 337
309 309 309 309 308 307 304 304 304 304 305 305 306 306 308 309 311 311 312 312 323 322 325 325 326 325 322 330 326 326 326 326 325 323 322 324 323 326 324 325 329 331 339 339 338 336 336
307 308 308 307 308 306 304 304 304 304 305 305 305 306 307 308 310 311 313 315 315 318 328 330 323 325 325 328 328 326 327 326 325 323 322 323 324 323 324 325 328 329 329 336 337 336 338
307 306 306 306 307 304 304 304 304 305 305 305 305 306 306 307 309 311 315 317 317 316 315 317 320 321 324 324 325 325 325 324 325 324 323 321 322 323 325 326 327 327 325 328 332 337 337
306 306 306 306 304 304 304 303 304 304 304 305 305 306 306 307 308 315 314 317 318 317 316 317 317 318 318 320 322 327 322 324 326 325 325 322 323 324 324 324 324 321 322 322 323 326 336
304 305 305 304 302 303 303 303 303 303 304 304 305 305 306 306 310 311 316 317 317 317 316 320 319 319 319 320 321 329 324 324 323 325 325 324 326 326 326 325 323 320 321 322 323 326 325
303 305 304 303 302 303 303 303 303 303 303 304 305 305 306 306 310 313 315 317 317 317 314 323 319 321 317 319 321 322 326 323 323 324 324 326 329 327 328 328 324 321 321 321 325 326 325
305 305 305 304 302 303 304 304 303 303 304 304 304 305 306 307 307 311 313 316 316 317 316 323 321 320 319 319 321 321 325 323 323 324 324 325 326 327 326 327 325 324 324 322 323 321 324
304 304 304 304 302 302 303 303 303 303 304 304 305 306 306 306 307 313 313 312 313 320 319 322 320 319 318 318 319 320 325 324 325 325 325 325 327 327 327 325 323 323 319 321 323 324 326
303 304 303 304 303 304 304 303 302 302 303 303 306 307 307 308 307 308 314 311 318 319 318 318 318 319 319 319 319 319 325 325 324 326 326 328 329 327 327 324 323 322 319 322 326 328 330
303 303 302 303 302 304 304 303 301 301 302 304 306 308 309 308 312 308 310 314 314 318 320 318 317 320 318 320 320 319 321 326 326 324 326 326 328 328 328 326 323 324 323 320 322 324 325
303 303 303 301 301 301 303 302 301 300 302 304 306 309 312 311 311 312 312 315 316 317 316 316 318 318 318 318 318 318 318 320 326 327 322 323 325 325 327 328 323 322 321 323 320 326 326
302 303 304 302 301 302 303 302 300 300 302 305 309 311 316 312 312 308 312 313 315 315 315 315 316 316 317 317 317 317 318 321 321 321 324 321 323 327 327 327 324 324 323 321 319 321 324
302 302 302 300 301 303 303 302 299 299 302 304 305 313 314 315 311 308 311 315 314 315 315 315 316 316 316 317 317 317 319 322 321 322 323 322 321 325 326 326 326 324 323 320 321 321 328
302 303 302 301 303 303 302 300 298 299 301 302 303 309 316 315 312 310 310 314 314 314 314 315 315 317 316 316 316 318 320 322 321 328 321 322 322 325 324 323 324 327 323 323 320 322 325
302 302 302 302 302 301 300 299 298 299 303 304 305 315 312 311 310 315 316 316 317 318 317 315 315 315 316 317 314 315 317 319 320 323 338 329 321 322 324 324 329 332 331 328 324 325 324
301 302 301 302 301 301 300 299 299 299 307 307 307 314 312 314 315 315 318 320 319 318 317 318 318 315 316 317 316 315 315 317 320 327 324 324 326 331 329 333 335 335 333 334 330 326 327
300 302 301 301 301 301 300 300 300 299 307 310 308 309 308 309 312 312 315 320 322 321 319 317 317 318 316 315 316 317 316 319 323 328 328 323 324 335 334 334 335 337 335 336 336 335 327
300 300 301 301 300 300 300 300 300 299 302 304 307 307 306 310 308 310 313 320 321 323 324 324 324 318 317 315 314 319 318 318 322 330 331 335 326 330 333 335 336 334 334 337 337 335 333
299 299 300 300 300 300 300 301 300 299 298 300 304 305 307 313 312 313 314 319 320 323 325 325 324 322 323 320 323 323 323 323 324 324 328 336 337 330 331 332 338 333 334 334 338 351 340
299 298 299 299 299 299 300 300 299 299 298 299 302 304 304 308 311 313 313 316 317 317 321 324 325 325 322 318 320 322 322 320 324 325 327 331 336 338 336 336 335 335 336 336 342 353 343
298 298 298 299 298 300 299 299 299 299 299 299 305 304 303 305 309 309 312 313 313 314 318 323 323 320 320 317 320 325 326 324 326 326 324 324 331 335 337 340 341 334 334 334 334 347 345
298 298 299 299 299 299 299 299 299 299 298 298 302 303 303 302 304 305 310 309 311 313 318 321 318 324 318 317 320 321 324 324 326 329 327 323 327 331 336 338 335 348 350 340 332 331 346
298 298 297 298 298 298 298 298 299 298 298 298 301 302 301 298 299 302 305 309 309 311 317 315 321 321 325 326 319 319 321 320 323 330 339 326 325 329 333 336 337 344 350 349 344 346 345
297 297 298 298 298 298 298 298 298 298 298 298 298 299 299 299 298 301 302 303 305 307 307 311 319 319 326 323 325 324 331 328 332 337 333 337 334 337 333 333 341 339 344 344 344 343 342

GFSGBSN_925_thetae_009.txt.gz
Theta_e
312 312 311 310 310 308 307 307 307 307 306 307 307 308 308 309 309 309 310 310 310 311 311 313 317 318 323 326 325 329 323 322 320 318 317 320 326 326 324 321 321 322 324 327 327 332 337
310 311 310 311 310 308 306 306 306 306 306 306 307 308 308 309 309 310 310 310 311 311 311 312 317 318 327 323 331 329 325 321 321 316 319 322 326 323 323 322 324 324 325 329 328 334 336
310 310 310 310 310 307 305 305 305 305 305 306 306 307 308 309 309 310 311 311 312 311 312 313 319 320 325 315 326 325 324 322 317 317 321 324 326 323 322 323 325 329 330 328 331 334 335
309 309 310 310 309 307 304 304 304 305 305 305 306 306 307 309 309 310 311 312 312 313 314 316 321 326 323 324 326 322 318 316 317 316 323 326 326 324 323 326 327 330 331 334 332 335 336
308 308 309 309 308 305 304 304 304 304 305 305 305 306 306 308 309 310 311 312 316 323 319 319 328 329 326 325 321 322 319 322 319 317 320 324 324 323 328 327 326 324 328 332 334 334 336
308 308 308 309 307 304 304 304 304 304 305 305 305 306 306 307 307 309 312 313 324 327 325 325 325 322 318 329 325 325 322 325 324 322 321 322 320 323 322 325 322 329 335 331 332 335 334
307 307 308 307 306 304 304 303 304 304 304 305 305 305 306 306 307 308 312 316 312 315 325 321 318 319 322 326 326 323 323 324 325 321 320 320 322 321 323 324 327 328 329 328 329 329 336
306 307 306 305 305 303 303 303 303 303 304 304 305 305 306 306 306 308 317 316 315 314 313 314 318 321 322 323 321 324 325 325 324 324 321 319 320 321 322 323 325 326 326 323 323 328 335
306 306 306 304 303 303 303 303 303 303 303 304 304 305 306 306 307 314 312 316 315 315 314 315 315 316 316 318 320 321 322 323 325 324 323 321 322 323 323 323 324 322 320 319 321 322 332
306 306 306 304 303 303 303 303 303 303 303 304 304 305 306 305 310 309 314 315 316 315 312 315 318 317 316 318 320 323 322 323 324 325 324 323 323 325 326 325 322 322 320 320 321 323 322
305 305 306 305 302 302 303 303 303 303 304 304 304 304 305 305 307 309 315 315 316 315 313 318 319 318 316 320 321 326 323 322 323 323 323 324 327 327 327 327 322 324 322 321 322 324 324
305 305 305 305 303 304 304 303 303 303 303 304 304 305 306 306 306 307 311 315 315 311 313 319 319 318 318 319 320 322 323 322 322 322 322 322 324 325 325 326 325 325 322 319 320 318 322
304 304 304 304 302 303 303 303 302 301 302 303 304 305 305 306 305 312 310 310 311 314 315 319 318 317 317 317 319 322 324 323 323 323 322 323 324 324 326 327 324 319 318 320 321 320 321
303 304 304 302 301 301 302 302 301 301 301 303 305 306 307 306 307 307 312 310 314 312 316 316 317 317 318 318 318 319 323 324 322 323 324 326 326 326 326 325 326 320 317 320 322 324 323
303 303 304 303 301 301 303 302 300 299 301 303 305 306 307 307 307 308 308 309 308 313 317 316 315 318 316 316 319 318 321 321 322 322 325 324 326 327 326 325 324 324 322 318 318 320 323
302 303 303 300 301 304 303 301 299 299 300 304 306 308 311 311 311 311 310 310 313 315 315 314 316 316 317 316 317 317 317 320 323 323 322 324 325 321 324 325 324 322 320 323 317 325 325
302 303 302 301 303 303 301 300 298 299 300 304 309 309 312 313 311 308 312 311 314 313 314 315 315 316 316 317 316 316 316 319 322 323 321 320 320 324 326 326 325 322 321 317 317 319 323
302 302 302 302 302 302 300 299 298 299 301 304 302 313 312 309 306 305 310 313 312 313 311 313 314 314 315 315 315 316 316 319 319 320 323 320 319 324 322 323 324 322 321 318 322 322 323
302 303 301 302 302 301 301 299 299 299 302 302 302 305 313 312 310 309 309 313 313 312 313 314 314 315 314 315 314 314 318 319 317 319 320 319 319 322 320 321 323 326 323 318 317 316 325
301 302 302 301 301 301 300 299 300 299 306 304 305 315 310 308 307 314 317 318 318 317 315 314 314 314 314 315 312 315 316 316 315 318 338 323 316 319 322 322 325 332 332 324 321 323 322
300 300 302 301 301 301 300 300 300 300 308 307 306 311 309 313 313 313 315 319 321 320 317 316 317 316 316 314 316 315 315 315 317 324 325 320 324 322 324 324 332 333 334 330 327 323 326
300 300 300 300 300 300 300 300 299 300 307 307 307 308 305 308 309 309 311 317 319 322 320 319 322 325 321 314 314 315 316 317 317 322 327 326 321 332 331 332 334 334 333 335 334 333 328
299 299 300 299 299 299 300 300 300 298 303 303 304 304 305 307 308 310 311 318 320 321 322 323 324 323 320 320 320 314 312 317 320 325 327 333 324 325 328 333 331 328 334 335 335 337 334
299 299 299 299 299 299 300 299 299 299 298 300 302 302 305 309 311 312 314 314 316 320 322 323 323 324 322 321 319 317 319 317 317 320 324 333 331 326 328 328 332 325 330 334 342 348 341
298 298 299 299 299 300 299 299 299 299 298 300 302 302 302 307 309 310 311 312 311 312 318 322 324 323 318 318 319 319 319 319 321 320 323 326 331 335 333 330 330 333 333 336 337 348 336
298 298 299 299 298 299 299 299 299 299 298 301 303 302 301 304 305 308 310 312 310 311 315 320 320 316 317 314 318 322 321 320 323 325 321 326 327 333 334 337 338 331 341 346 338 340 337
298 298 298 298 298 298 298 299 298 299 298 298 301 300 300 301 301 304 308 308 308 310 315 315 314 321 319 314 318 319 322 322 326 324 323 320 323 325 335 337 334 344 345 344 336 332 340
297 298 298 298 298 298 298 298 298 298 298 298 299 299 299 297 297 300 303 306 306 309 314 311 318 318 324 325 321 317 319 318 323 336 338 324 324 326 330 335 337 341 343 341 339 342 339
297 297 298 297 297 297 298 298 298 298 298 297 298 298 298 297 296 300 301 301 304 306 305 304 315 317 322 319 320 321 328 326 328 334 330 335 331 331 328 332 339 339 344 342 340 341 340

GFSGBSN_925_thetae_012.txt.gz
Theta_e
311 311 312 312 310 307 306 306 306 306 305 306 306 307 308 308 309 310 310 310 311 311 311 311 313 317 323 322 322 327 320 320 320 319 316 320 324 325 323 320 321 321 322 324 325 325 331
310 310 311 310 309 307 305 305 305 305 305 305 306 307 307 308 309 310 310 311 311 312 311 311 315 318 325 317 328 326 321 321 320 318 316 323 326 324 322 322 322 323 324 325 327 329 335
309 310 309 309 310 306 304 304 304 304 305 305 305 306 307 307 309 310 311 311 312 313 313 312 317 320 321 313 324 324 322 321 320 316 318 321 325 323 320 322 323 328 329 328 329 332 334
308 308 309 309 308 304 304 304 304 304 305 305 305 305 306 307 308 309 310 311 313 320 318 316 320 324 316 323 325 323 322 319 316 316 322 324 325 324 321 323 324 326 327 331 329 333 333
308 308 308 308 307 304 304 304 304 304 304 304 305 305 305 306 307 309 310 311 318 321 319 321 327 328 317 323 323 323 319 318 317 315 316 321 322 321 324 325 321 321 326 330 331 331 334
307 308 307 307 306 304 303 303 303 303 304 304 304 305 305 306 306 308 310 317 321 326 325 325 325 317 316 327 324 322 317 321 321 320 320 321 318 321 321 322 316 324 331 328 329 328 333
307 307 307 306 305 303 303 303 303 303 303 304 304 305 305 306 306 307 315 317 310 313 317 318 318 315 319 323 324 321 321 322 322 319 319 319 320 320 321 324 325 327 327 326 325 325 332
307 308 308 306 305 303 303 303 303 303 303 304 304 305 305 306 306 308 315 311 312 312 312 312 314 319 321 321 320 322 324 324 324 323 320 319 319 318 320 321 324 325 325 323 321 322 332
306 305 307 306 305 304 304 303 303 303 303 304 304 305 305 306 307 312 312 314 312 311 311 313 314 315 316 318 318 321 322 322 323 323 320 320 321 320 322 323 323 322 321 321 320 319 328
306 306 306 307 305 305 304 303 303 302 303 304 304 304 305 306 308 307 313 314 313 312 309 312 316 316 315 316 320 321 322 322 323 323 321 322 322 324 324 324 322 324 320 321 320 320 318
305 305 305 306 304 303 302 303 302 301 302 303 304 304 305 306 306 306 313 312 314 312 313 316 318 317 315 319 321 322 321 323 322 323 322 321 325 325 326 326 321 325 322 320 321 321 323
305 305 304 304 304 302 302 302 301 301 301 302 304 304 305 306 306 306 308 313 313 307 311 317 318 317 317 318 319 322 322 321 321 322 322 321 322 324 323 325 324 325 320 317 316 316 320
303 304 305 304 302 303 304 302 300 300 301 302 304 304 305 305 305 310 309 309 308 309 313 318 317 315 316 317 318 324 322 322 323 323 323 321 322 322 323 324 323 320 318 319 320 319 319
303 303 303 302 302 304 303 300 299 298 300 302 304 305 306 306 306 307 311 309 309 309 313 315 315 315 317 316 317 321 323 323 322 320 321 323 322 324 324 323 323 320 319 319 322 321 322
303 304 302 302 303 302 301 300 298 298 300 302 305 306 306 307 306 307 306 307 305 310 316 314 314 315 315 315 317 318 321 322 322 321 322 323 325 324 325 323 323 321 320 317 317 317 321
303 303 301 302 302 301 301 299 298 299 300 304 306 308 310 311 307 310 307 307 309 312 313 313 316 315 315 315 316 316 318 318 320 320 320 321 323 321 323 323 322 322 319 321 316 322 324
302 303 301 301 301 301 301 299 299 299 303 305 307 308 310 310 310 307 308 308 313 312 311 312 314 315 315 315 315 315 315 317 320 321 319 318 320 321 323 323 323 320 320 316 316 317 321
302 302 302 302 301 300 300 300 300 299 306 306 301 312 310 309 307 303 309 310 311 313 310 312 313 314 315 314 314 315 315 316 317 317 321 318 316 321 320 320 322 320 320 317 321 321 320
301 301 302 302 301 300 300 300 299 299 304 304 304 306 311 310 306 307 308 312 312 313 313 313 313 314 313 314 315 313 315 317 316 316 318 318 319 321 320 317 321 325 319 316 314 316 326
300 301 301 301 300 300 300 300 299 299 306 305 306 313 309 306 305 313 317 318 318 317 315 314 314 313 314 314 312 314 315 316 315 317 340 319 314 319 319 318 321 329 328 320 318 321 320
300 300 300 300 299 300 301 300 299 299 306 306 305 309 308 312 312 312 313 316 320 321 319 314 317 318 322 317 314 313 313 314 316 323 322 318 323 318 318 319 327 331 331 324 325 324 331
300 299 299 300 299 300 300 300 299 299 305 305 306 307 304 306 307 309 312 318 320 320 321 320 324 324 323 314 315 317 314 315 319 319 324 323 321 329 329 331 330 333 332 330 331 326 324
299 299 299 299 299 300 299 299 299 298 302 302 302 303 304 305 308 309 311 316 319 319 319 321 323 323 323 317 323 322 316 312 312 321 324 329 323 322 325 330 328 325 331 332 333 332 331
299 298 299 299 300 299 299 300 299 298 298 300 300 300 304 304 309 311 312 313 317 315 319 319 321 324 321 319 317 318 316 312 313 316 320 330 325 322 325 326 329 322 326 331 337 344 340
299 299 299 299 299 299 299 299 299 299 298 301 301 301 301 305 307 308 311 311 311 310 314 319 321 320 315 317 317 318 317 319 320 318 318 321 329 333 330 327 327 332 336 344 336 337 337
298 298 298 298 299 298 298 299 299 298 298 300 300 301 299 302 303 307 308 310 310 310 313 316 316 313 317 312 317 321 320 318 320 322 322 324 324 331 332 334 335 329 339 344 342 337 336
298 298 298 298 298 298 298 298 298 298 298 298 299 299 299 300 299 303 305 308 307 309 311 312 312 317 317 312 316 319 320 320 324 321 321 318 321 324 333 336 333 333 343 341 336 334 341
297 297 297 297 297 298 298 298 298 298 298 297 298 297 298 295 295 299 302 304 304 306 311 309 314 315 318 324 321 317 317 318 325 333 335 321 322 324 327 332 333 339 341 338 333 342 338
297 297 297 297 297 298 298 298 298 298 298 297 297 297 297 296 296 298 300 301 302 304 303 302 312 314 319 318 318 319 325 323 326 332 328 333 327 323 324 327 333 339 342 339 338 339 338

GFSGBSN_925_thetae_015.txt.gz
Theta_e
311 310 310 311 311 307 305 305 305 305 305 305 306 306 307 308 309 310 310 311 311 312 312 311 311 316 321 322 320 328 318 317 318 319 317 324 326 328 325 324 324 324 325 327 328 329 330
310 310 310 311 308 305 304 304 304 305 305 305 305 306 306 307 308 309 310 311 311 312 313 312 312 317 324 318 325 325 318 320 320 318 317 324 328 326 325 324 325 326 329 330 331 332 336
309 309 309 309 307 304 304 304 304 304 304 305 305 305 306 306 307 308 310 310 311 315 318 314 314 319 322 316 324 321 322 320 319 316 319 321 325 326 325 325 326 330 331 331 334 335 336
308 308 309 308 307 304 303 303 303 304 304 304 305 305 305 306 306 308 309 310 316 321 321 315 318 322 318 321 324 322 321 320 319 317 322 323 324 325 325 326 327 329 330 332 333 335 336
308 308 308 308 307 303 303 303 303 303 304 304 304 305 305 306 306 307 309 313 318 321 319 321 325 328 318 323 324 323 321 317 315 315 317 320 323 326 328 327 325 328 330 332 335 332 333
308 308 308 307 307 304 303 303 303 303 303 304 304 305 305 306 306 307 310 317 318 325 323 324 324 322 318 326 322 321 319 318 320 319 322 323 325 328 329 327 321 325 330 332 333 331 329
307 307 308 307 306 306 303 303 303 303 303 304 304 305 305 306 306 307 315 315 317 317 316 321 320 315 318 322 322 320 318 322 322 324 325 323 324 325 325 329 328 330 328 330 330 328 330
306 306 307 307 307 306 306 304 303 303 303 304 304 305 305 306 306 310 314 315 313 313 318 314 314 317 319 321 323 323 322 327 327 326 322 324 325 324 323 326 327 327 328 329 328 324 332
306 306 306 306 306 304 303 304 302 302 303 303 304 305 305 306 307 310 313 313 310 311 316 316 316 317 318 320 321 325 324 325 327 326 325 327 324 322 324 325 327 326 328 327 326 324 331
305 305 305 305 305 304 304 304 301 301 302 303 304 305 305 305 307 306 314 311 311 311 318 316 317 318 317 319 321 322 325 326 326 328 325 327 325 324 325 326 326 330 325 326 326 326 326
304 305 305 304 304 305 305 302 300 300 301 302 303 304 304 305 306 307 312 309 312 311 320 316 319 316 316 320 322 323 323 325 327 326 326 324 326 327 328 328 326 329 324 325 325 325 328
304 303 304 303 304 304 303 300 299 299 301 302 303 304 304 306 306 306 307 311 312 314 317 319 318 318 318 320 321 323 325 324 324 325 324 325 324 326 326 326 326 326 324 324 325 327 327
303 305 303 303 304 303 302 301 298 298 300 302 304 304 304 305 307 307 308 312 314 314 315 319 318 317 318 319 321 325 326 327 328 329 329 326 326 325 325 326 325 325 329 331 327 328 327
303 303 303 303 303 302 301 301 298 298 300 303 305 305 306 306 306 307 310 315 312 312 313 316 316 316 319 318 320 325 326 328 324 325 327 325 323 326 325 326 327 327 330 330 329 327 327
303 303 303 303 302 301 301 300 299 299 300 308 305 307 306 307 306 307 315 313 313 311 316 316 317 319 319 318 319 323 327 327 327 326 328 328 327 326 326 326 326 326 329 325 329 326 329
302 303 303 302 302 301 301 301 299 299 303 308 305 309 310 311 307 310 316 312 311 312 314 315 319 317 319 318 320 321 323 322 325 325 327 327 325 324 325 326 324 327 325 329 328 334 333
302 302 303 302 301 301 300 301 299 299 306 307 306 314 310 307 309 315 315 314 314 314 312 314 317 318 317 318 317 319 321 320 321 323 325 326 327 324 325 326 327 326 327 326 328 329 331
301 301 301 302 301 300 300 301 299 300 308 306 306 315 310 310 314 310 315 314 311 313 312 313 315 316 317 317 318 318 319 319 317 322 324 325 327 328 325 324 324 326 328 330 330 334 330
301 300 301 301 300 300 301 300 299 300 306 305 312 312 310 310 312 314 311 313 313 315 315 315 316 315 316 318 321 317 317 318 317 320 326 325 328 329 327 325 325 328 326 327 330 332 338
300 300 299 300 300 301 300 300 299 301 306 306 313 316 314 312 310 315 319 318 315 319 317 317 317 318 319 319 317 319 318 317 317 321 334 326 329 332 326 326 327 331 327 325 331 333 334
300 299 299 299 300 301 300 300 299 301 306 307 311 314 311 314 315 315 316 319 321 322 321 321 318 325 325 323 318 319 317 318 318 325 325 328 333 328 327 324 324 329 334 326 332 336 334
300 299 298 299 300 300 300 300 299 300 305 305 312 313 308 312 310 312 315 321 322 322 322 323 325 326 326 324 319 322 325 322 321 324 330 329 335 332 334 332 325 326 328 333 331 330 332
299 299 299 300 299 299 300 299 298 299 303 304 302 303 309 307 313 314 317 320 320 320 321 322 322 326 326 323 323 325 325 325 324 323 327 336 337 335 331 334 334 335 333 335 335 336 336
299 299 299 299 299 299 299 299 299 298 301 301 300 302 310 309 312 314 315 315 318 317 321 320 321 326 323 321 323 321 322 324 325 324 321 334 339 334 332 336 335 331 332 334 337 342 340
299 299 299 299 299 298 299 299 299 298 299 301 300 303 308 309 310 311 312 314 315 314 316 319 320 322 320 323 324 327 325 325 325 324 324 327 337 340 337 335 333 336 342 346 343 342 345
300 298 298 298 298 298 298 298 299 298 297 300 299 300 303 308 307 309 311 312 315 316 317 318 318 314 324 322 323 329 325 325 325 326 325 328 333 336 339 335 334 334 345 345 347 338 341
297 298 298 298 297 298 298 298 299 298 298 298 297 299 301 304 303 308 311 313 310 313 315 316 314 322 322 323 325 325 325 323 325 328 330 330 333 332 336 342 338 335 344 343 341 338 346
297 298 296 297 298 298 299 298 299 299 298 297 298 297 299 301 302 302 305 308 309 311 314 313 317 321 325 328 326 324 324 325 332 334 332 330 330 328 333 337 340 342 345 343 348 349 346
296 297 296 297 298 298 298 298 298 298 298 298 297 297 297 299 301 298 300 301 302 304 308 308 317 320 325 325 325 326 330 330 335 336 334 338 334 331 332 331 341 341 345 342 341 343 345

GFSGBSN_925_thetae_021.txt.gz
Theta_e
311 310 311 309 305 304 304 304 304 305 305 305 305 306 307 308 308 309 309 310 311 311 313 316 316 312 322 333 333 330 317 318 325 322 325 328 327 329 333 337 336 338 336 336 336 336 337
310 310 311 308 305 304 304 304 304 304 304 305 305 305 306 307 308 308 309 310 310 312 316 320 317 312 330 327 331 328 325 326 324 323 327 327 329 330 332 333 336 336 336 337 336 337 336
310 310 310 308 306 304 304 304 304 304 304 304 305 305 306 306 307 308 308 309 310 313 318 323 315 319 325 325 331 329 324 325 323 323 328 329 328 328 331 333 334 334 337 337 336 336 335
309 309 309 309 307 304 303 303 303 304 304 304 305 305 305 306 306 307 308 309 310 316 321 321 315 327 326 324 328 327 326 325 323 322 328 328 328 328 329 331 332 335 335 335 337 335 335
308 309 309 310 308 305 304 303 303 303 304 304 304 305 305 306 306 307 307 309 314 319 321 319 330 328 328 321 325 329 326 326 323 324 327 327 328 329 329 327 328 330 331 334 333 334 333
307 308 308 308 307 305 305 304 303 304 304 304 304 305 305 306 306 307 307 313 319 321 327 327 327 329 325 323 324 328 327 323 323 325 327 328 328 328 327 328 327 328 328 328 330 332 333
307 306 307 307 306 307 306 303 303 303 303 304 304 305 306 306 306 307 312 322 330 330 328 327 328 323 324 327 325 326 326 324 326 325 328 329 328 326 328 329 329 330 328 328 329 330 331
308 307 306 306 307 308 305 303 302 302 303 303 304 305 306 306 306 308 314 324 321 320 323 324 323 324 324 327 326 326 325 326 326 327 328 329 326 328 328 327 327 327 328 329 330 332 331
304 305 305 305 306 305 304 302 300 301 301 302 304 305 306 306 307 312 320 321 318 319 323 324 323 322 323 326 327 328 326 327 328 328 329 328 329 328 327 326 327 327 328 329 330 332 331
306 304 305 305 305 305 303 301 299 299 300 302 303 304 306 306 311 314 319 319 318 319 325 324 322 322 323 325 327 329 326 329 330 330 329 328 328 327 327 327 328 329 330 329 329 330 331
306 304 304 305 305 304 303 302 299 298 299 301 303 305 306 305 311 315 320 317 318 320 326 324 322 323 324 324 327 327 328 330 332 331 331 330 328 328 327 327 328 330 332 329 330 331 331
305 304 304 304 304 304 302 301 299 298 299 302 304 307 306 313 314 314 314 316 320 324 323 324 324 322 323 324 326 328 330 330 331 331 330 331 329 329 328 329 329 330 330 330 331 331 330
304 305 304 303 303 303 301 301 299 298 299 302 307 308 305 310 316 313 314 319 323 324 324 324 324 324 324 324 325 329 331 332 332 333 332 330 330 328 329 329 330 330 330 332 332 334 332
303 303 302 303 302 301 302 300 299 298 300 303 310 307 311 309 313 313 316 322 325 323 323 324 324 324 324 324 326 328 331 332 330 330 331 332 330 330 330 329 330 331 331 331 333 332 336
303 302 302 302 302 302 302 300 299 298 301 307 310 314 313 314 312 313 320 323 324 324 322 322 323 324 325 325 326 328 330 331 331 330 333 330 330 329 328 328 328 330 331 330 330 331 332
302 302 301 301 301 302 302 301 299 299 302 309 310 314 316 315 314 314 320 322 323 320 320 321 324 325 326 325 324 328 329 329 330 330 330 331 332 330 328 328 328 329 331 332 331 333 334
302 301 301 301 301 302 300 301 299 299 304 310 314 318 315 312 313 317 318 321 322 319 319 320 321 325 326 326 325 326 328 327 328 330 329 329 330 329 328 329 329 331 331 331 330 333 337
301 301 301 301 302 300 300 300 299 301 305 314 318 318 314 313 315 317 318 320 315 319 318 319 321 322 324 325 325 326 327 328 326 327 328 328 330 331 330 329 328 328 331 332 333 335 334
301 301 300 302 301 300 301 300 299 302 303 310 322 318 314 315 316 318 319 319 318 319 319 319 319 322 323 324 326 325 326 324 323 326 329 329 329 332 332 329 329 328 327 330 333 336 340
301 300 301 301 301 301 300 300 298 302 304 309 322 318 316 315 318 321 320 320 318 317 318 318 319 321 323 324 326 326 325 323 322 325 338 333 330 331 330 332 332 331 329 329 331 335 334
300 301 301 301 301 301 301 300 298 302 305 310 320 322 320 317 318 319 320 319 318 320 319 320 320 320 321 324 324 325 324 323 322 328 327 330 333 332 331 328 328 329 329 330 330 332 334
300 301 301 300 301 300 300 300 299 302 308 313 320 321 316 320 322 320 318 321 320 319 322 320 320 320 319 321 323 324 325 325 325 326 327 330 335 333 333 330 328 328 328 328 330 331 333
300 301 300 299 300 300 300 300 299 301 308 313 312 316 320 317 318 320 321 320 321 320 322 324 323 322 323 324 325 328 330 332 332 332 330 333 334 333 335 330 328 331 330 328 329 332 333
299 298 299 299 300 299 300 301 300 298 302 308 309 312 317 318 319 318 319 321 321 322 325 322 325 325 329 327 326 325 325 325 327 329 331 335 337 336 335 333 333 332 331 332 330 330 331
297 297 299 299 299 299 301 301 300 299 300 307 307 310 315 317 316 319 320 320 321 322 323 324 323 326 325 326 325 326 325 325 324 324 328 329 332 331 332 332 331 331 332 332 331 332 332
298 297 299 298 299 299 301 300 300 299 298 305 307 306 311 314 315 315 317 318 321 321 321 321 322 323 323 323 324 326 327 326 327 325 325 326 331 330 330 332 334 332 334 336 334 339 336
298 297 298 296 298 299 300 300 300 300 298 301 306 305 308 312 312 312 313 316 317 319 321 322 322 322 322 324 325 326 326 326 327 329 329 327 329 328 327 330 330 331 343 342 337 345 353
299 297 297 296 298 299 299 299 300 300 299 301 305 303 306 311 311 309 311 315 315 317 319 321 320 321 324 324 324 325 326 325 326 328 331 334 331 330 327 328 329 337 340 340 356 353 354
300 298 297 296 298 298 299 299 300 299 299 301 306 304 303 304 309 307 307 308 311 314 317 319 320 325 319 322 324 325 327 327 331 329 328 336 331 334 331 329 346 344 351 351 351 353 354

GFSGBSN_925_thetae_024.txt.gz
Theta_e
312 311 311 307 305 304 304 304 304 304 305 305 305 306 306 307 308 308 309 309 310 311 312 316 320 314 319 337 337 324 318 318 320 328 325 328 328 329 331 337 337 338 335 334 335 335 336
311 310 310 308 305 304 304 304 304 304 304 305 305 305 306 306 307 308 308 309 310 311 314 319 321 313 331 330 333 324 326 324 329 324 327 328 329 330 332 334 335 337 337 336 336 336 336
310 311 311 309 306 304 304 304 304 304 304 304 305 305 305 306 307 307 308 309 310 311 316 321 318 316 327 326 331 330 327 326 325 324 328 329 329 329 330 333 334 335 334 335 337 336 333
309 310 310 309 307 305 304 304 304 304 304 304 304 305 305 306 306 307 308 309 310 313 317 321 318 325 329 325 328 329 327 326 324 323 327 329 328 328 329 332 332 332 334 335 335 337 335
308 308 309 308 308 306 305 304 304 304 304 304 304 305 305 306 306 307 308 309 311 315 317 321 328 330 327 322 323 328 327 327 325 324 327 328 327 329 329 328 329 331 332 333 337 334 333
307 308 308 308 308 308 306 303 303 304 304 304 304 305 305 306 306 307 308 310 316 317 327 326 328 328 327 327 324 328 328 327 325 326 327 328 328 328 328 328 327 329 329 329 334 332 334
308 307 306 308 308 306 305 303 302 303 303 303 304 304 305 306 306 306 308 320 329 332 325 326 327 323 326 327 325 328 328 326 325 325 326 329 327 327 327 329 329 329 330 329 329 330 331
306 305 306 307 306 306 304 302 301 301 301 302 303 304 305 306 306 307 309 323 323 321 323 326 326 327 325 327 327 326 327 326 326 325 326 330 327 328 329 329 327 327 327 328 329 330 332
305 305 306 305 306 305 303 301 299 299 300 301 302 304 306 306 307 308 317 322 320 320 322 323 324 324 325 325 327 326 328 326 327 326 328 328 329 329 328 326 326 327 327 329 330 331 332
306 305 305 305 305 305 302 300 299 299 299 300 302 304 306 307 311 318 317 322 319 321 323 323 324 324 324 324 325 328 327 327 328 328 328 329 329 329 328 326 328 328 331 329 328 329 331
305 306 305 305 304 304 302 300 299 298 299 300 302 304 307 306 309 317 321 319 318 321 325 324 325 324 324 324 326 328 328 327 329 330 331 330 328 328 326 327 328 328 332 332 329 330 331
304 304 305 305 304 303 302 300 298 298 299 300 302 307 308 312 314 312 315 317 319 323 322 325 324 324 323 324 325 327 329 328 330 332 331 331 331 329 328 328 328 329 330 330 330 330 332
304 304 303 303 303 303 302 301 299 298 299 300 303 309 308 309 317 316 315 317 321 323 323 325 325 325 323 323 325 328 330 329 331 332 333 331 330 329 329 329 330 329 330 331 331 333 335
303 303 302 303 302 302 303 301 298 298 299 302 306 309 310 308 313 315 316 320 324 322 323 325 325 324 323 324 324 326 329 331 330 331 331 331 330 330 329 329 329 331 331 331 336 332 338
303 302 302 302 302 302 300 300 298 298 300 303 309 314 313 314 312 314 318 321 324 325 324 324 324 325 324 324 325 325 329 330 330 330 333 331 333 331 330 330 329 329 330 329 331 332 330
302 302 302 302 303 301 300 300 298 298 301 307 310 316 317 315 314 315 318 321 322 323 322 323 324 324 325 325 325 326 329 329 330 330 331 332 332 330 330 329 329 329 330 331 333 336 336
302 302 301 302 302 300 301 300 298 300 302 312 313 319 319 316 315 316 317 319 321 322 321 322 322 325 325 326 326 325 328 329 329 330 331 331 332 331 330 330 330 329 332 330 329 333 334
302 302 301 301 300 301 301 300 299 301 303 315 319 320 317 314 315 315 316 318 320 322 321 321 322 324 325 327 327 326 327 328 328 329 330 330 330 332 331 330 329 329 329 331 334 338 336
301 301 302 302 301 301 301 300 298 301 303 307 323 321 317 314 314 316 317 318 319 322 321 321 320 322 324 326 327 326 327 326 327 327 332 332 330 330 332 331 330 329 329 329 331 340 342
301 302 301 301 301 301 300 300 298 301 304 307 323 319 317 315 317 319 321 319 320 320 320 321 321 322 323 324 325 331 327 325 324 324 336 331 334 332 331 332 333 333 332 331 330 334 335
300 301 302 301 301 301 301 300 297 300 305 309 322 324 321 316 314 317 321 322 321 321 319 321 320 321 323 325 326 327 327 326 324 327 325 328 334 332 330 329 330 331 332 331 330 331 333
301 301 301 300 301 300 301 301 298 300 307 313 318 322 322 321 322 320 318 321 321 321 321 321 321 322 322 323 326 326 325 327 325 325 327 331 335 333 332 331 330 329 328 328 328 329 331
297 298 300 300 301 300 302 301 300 300 308 315 313 315 319 320 320 322 321 320 321 322 321 323 323 322 322 324 326 329 330 332 334 334 334 336 335 337 335 332 332 333 329 328 329 329 329
298 298 299 300 300 300 302 301 300 298 300 306 312 311 317 319 321 318 319 321 321 322 324 323 326 327 330 329 328 327 326 327 329 331 333 338 343 340 338 336 336 332 332 332 334 331 329
299 298 298 300 300 301 301 301 301 299 299 305 309 311 317 319 319 319 320 320 322 323 323 326 324 328 326 327 328 327 326 325 325 325 328 331 334 335 337 334 333 331 334 334 335 333 347
298 298 298 299 298 300 300 301 301 300 296 304 309 308 312 316 317 317 319 321 322 323 323 323 323 324 324 325 326 329 328 326 326 325 324 326 339 333 333 333 333 334 330 336 338 337 351
298 299 298 298 298 300 299 300 301 301 298 302 308 306 310 313 314 313 316 318 319 320 322 323 322 323 323 323 322 324 325 326 328 329 330 329 331 331 331 330 329 331 330 343 352 356 353
298 300 298 297 297 300 300 299 300 301 299 302 308 307 306 311 313 312 312 315 318 319 321 322 324 324 324 322 323 324 325 327 328 332 332 333 332 330 332 332 330 327 337 347 357 354 353
298 300 299 298 296 299 300 300 300 300 299 301 309 308 307 306 309 308 308 309 311 315 318 320 322 323 325 323 325 323 324 327 336 330 331 333 336 335 334 333 349 349 354 353 352 353 353

GFSGBSN_925_thetae_027.txt.gz
Theta_e
311 312 309 305 304 304 304 304 304 304 304 305 305 305 306 307 307 308 308 309 310 310 311 315 320 318 314 332 336 321 319 318 320 326 328 327 326 326 328 330 337 336 337 335 332 334 334
311 310 309 306 304 304 304 304 304 304 304 304 304 305 306 306 307 307 307 308 309 310 312 316 320 315 329 332 333 326 320 321 327 328 325 327 328 327 328 330 332 335 333 333 333 334 336
310 310 310 308 306 304 304 304 304 304 304 304 304 305 305 306 306 307 308 309 309 310 312 316 320 317 327 325 332 330 327 326 327 324 323 328 328 326 325 326 331 333 333 331 332 333 335
309 308 309 309 308 306 304 304 304 304 304 304 305 305 305 306 306 307 308 309 309 310 313 317 320 322 330 326 327 330 328 326 326 324 323 328 328 326 327 326 328 329 329 330 334 334 333
309 308 308 310 308 307 305 304 304 304 304 304 304 305 305 306 306 307 308 309 310 311 314 317 327 328 331 326 324 328 328 327 326 324 324 327 326 325 326 325 323 325 325 328 336 334 333
307 307 308 309 307 306 304 303 303 303 303 303 303 304 305 306 306 307 308 310 312 318 323 328 327 327 328 327 324 323 327 327 326 324 324 326 325 324 323 322 323 325 327 329 338 336 333
306 307 308 307 307 306 303 301 301 301 302 302 302 303 305 306 307 307 308 311 326 329 323 327 326 324 325 327 325 325 328 327 325 324 322 325 324 323 323 323 326 326 325 326 329 330 329
306 305 306 306 305 305 303 300 300 300 301 301 301 303 305 306 307 307 307 317 321 320 319 321 323 328 326 327 326 326 328 326 325 324 323 323 324 324 327 328 326 324 324 324 326 330 329
306 306 305 306 305 304 302 299 299 299 300 300 301 302 304 306 307 309 311 318 320 319 319 321 321 322 324 325 326 325 325 326 325 325 325 323 327 328 328 326 325 324 324 324 328 328 326
306 306 306 305 305 304 302 300 299 299 299 300 301 303 305 307 311 313 318 321 319 319 320 322 320 321 323 323 322 324 326 326 325 325 325 325 327 329 328 328 324 323 328 329 328 326 326
304 304 304 304 304 304 303 300 299 298 299 300 300 303 305 307 307 312 316 316 318 319 328 324 321 324 321 321 324 324 327 325 325 326 328 328 328 327 328 325 325 326 330 331 331 326 326
304 304 304 304 303 303 303 300 298 297 298 300 301 303 306 314 313 313 315 315 318 322 326 324 323 321 320 320 322 324 326 325 325 326 330 328 329 329 327 326 327 328 328 329 328 325 326
303 303 303 303 303 303 301 300 298 297 298 300 302 304 307 308 316 314 315 316 320 323 322 322 322 321 319 320 321 323 328 325 325 330 331 332 329 329 328 327 327 329 326 328 329 329 332
303 303 303 302 304 301 300 300 298 297 298 301 303 307 307 307 308 314 316 318 324 322 320 322 323 322 322 321 321 322 328 328 326 328 330 332 331 327 327 327 329 328 325 327 333 331 333
303 303 302 303 302 300 301 300 297 298 299 302 307 313 312 309 307 313 316 319 323 325 322 322 322 324 322 322 322 321 326 328 328 327 330 332 333 332 328 328 327 328 327 327 327 329 328
303 302 302 302 300 301 301 300 298 299 300 307 312 312 316 315 313 313 316 319 320 321 322 321 322 324 325 322 321 321 325 327 329 328 327 328 333 329 329 329 328 328 328 325 327 335 336
302 302 302 301 300 302 300 300 298 300 301 313 315 319 316 316 315 315 316 316 319 320 321 321 320 322 325 325 323 322 323 327 328 328 327 326 330 331 331 328 328 328 325 328 323 325 328
302 302 302 300 299 302 300 301 299 300 302 306 317 324 319 315 315 315 314 316 316 318 319 320 321 322 324 326 329 324 325 328 327 328 328 328 329 331 331 330 328 327 327 330 333 332 333
301 302 302 301 299 301 301 301 299 299 302 303 317 324 317 315 313 313 315 315 315 316 317 321 321 321 321 325 329 332 328 324 324 328 330 330 328 328 327 328 329 332 331 328 327 330 329
301 302 302 299 301 300 301 301 299 298 302 305 316 325 318 316 314 315 318 321 320 318 319 320 321 321 321 325 325 328 328 325 324 326 334 330 334 336 328 334 332 332 332 331 328 330 329
301 300 300 300 301 300 301 301 299 297 303 307 319 325 321 317 315 314 316 320 321 320 320 320 322 321 321 326 328 325 326 326 324 323 325 329 332 333 331 329 328 329 331 331 331 330 330
299 299 300 300 301 301 301 300 300 297 308 311 319 317 316 319 323 317 320 317 322 322 321 319 321 322 321 325 325 332 333 334 335 327 325 327 332 332 334 332 330 331 330 331 329 328 327
299 299 299 300 300 302 302 301 300 298 306 311 313 311 315 320 321 321 321 322 320 321 323 322 321 324 323 330 329 327 326 328 333 334 336 331 333 331 332 333 332 332 332 333 333 334 334
299 298 299 300 300 301 301 301 300 300 298 303 310 312 316 318 318 320 320 320 321 322 326 327 326 331 328 325 327 326 325 325 326 331 330 338 340 339 339 338 341 332 331 332 334 345 344
299 298 298 299 299 301 301 301 301 299 297 302 308 310 314 316 317 317 318 320 323 325 324 327 327 326 324 326 330 328 326 327 326 326 329 330 333 333 336 336 335 333 334 335 339 350 344
299 298 299 298 298 300 301 301 301 300 298 302 308 307 310 314 316 315 314 318 321 323 324 323 326 323 323 324 327 332 329 327 327 325 323 324 333 333 332 337 337 333 337 336 337 355 343
298 298 300 298 297 299 301 301 301 301 299 301 307 309 307 313 314 314 313 314 318 319 321 325 324 324 323 323 324 325 326 326 328 330 329 325 329 333 331 333 330 329 327 336 335 346 341
298 298 300 299 298 297 300 301 301 300 298 301 308 309 307 308 309 312 312 312 312 317 320 320 324 324 324 323 323 323 324 325 326 326 335 331 331 327 329 332 332 346 346 353 340 336 348
298 298 298 298 298 298 297 298 301 300 298 299 307 306 309 310 307 308 308 309 308 312 316 317 322 326 332 332 327 328 324 326 329 331 331 332 329 329 326 328 352 350 352 348 347 348 349

GFSGBSN_925_thetae_030.txt.gz
Theta_e
310 311 309 305 304 304 304 304 304 304 304 305 305 306 306 307 307 307 308 308 309 309 310 312 318 317 315 327 332 327 319 318 321 324 327 328 325 325 326 326 334 336 335 335 334 332 332
310 309 309 307 305 304 304 304 304 304 304 305 305 306 306 306 307 307 308 309 309 309 310 312 318 317 326 329 334 326 320 321 325 327 327 323 325 326 325 325 328 331 332 332 330 331 335
310 309 310 308 306 305 304 304 304 304 304 304 305 305 306 306 306 307 308 309 309 309 310 312 317 319 325 316 331 329 325 325 326 326 321 322 326 324 324 325 326 326 332 329 329 330 334
308 309 310 308 308 306 304 304 304 304 304 304 304 305 306 306 306 307 308 309 309 310 310 314 316 323 320 324 327 329 328 327 326 325 323 323 326 325 325 324 323 324 324 328 328 332 332
307 309 308 308 308 306 303 303 303 303 303 303 303 304 305 306 306 307 308 309 311 311 312 315 327 328 327 325 323 328 328 327 326 325 324 324 324 323 323 323 321 319 323 324 327 333 333
307 308 308 307 307 306 303 302 301 302 302 302 302 303 305 306 306 307 309 310 314 321 322 327 325 321 323 326 325 324 327 327 325 322 322 323 321 321 319 319 322 322 324 325 333 332 332
306 307 307 307 306 304 302 301 300 301 301 301 301 302 304 306 306 307 309 313 315 317 321 324 322 320 322 325 324 322 326 326 324 322 320 321 322 321 321 320 322 323 323 323 325 330 330
307 307 307 307 305 304 302 300 300 300 300 300 301 301 303 305 306 307 308 314 319 318 315 317 320 322 324 326 324 325 326 325 323 322 322 320 320 321 323 324 323 323 322 321 323 328 327
305 305 305 305 305 304 303 301 299 299 300 300 300 301 303 305 307 312 313 316 318 317 315 317 318 318 319 323 325 324 323 324 324 323 322 322 322 325 326 325 323 321 322 322 323 325 324
305 304 304 304 304 304 303 300 299 298 299 300 300 301 303 305 310 309 314 314 315 318 315 318 318 318 320 321 321 324 323 325 324 322 323 322 323 325 326 326 324 321 322 329 328 324 324
304 304 304 304 304 304 301 299 298 298 298 299 300 301 303 305 310 308 314 315 315 318 314 323 319 321 317 320 322 321 324 325 324 323 325 325 327 326 326 326 323 321 326 327 328 322 322
304 303 303 303 305 302 301 299 297 297 298 299 301 302 303 308 311 313 313 315 316 318 319 322 320 319 318 319 320 321 324 324 324 324 324 325 327 327 325 325 324 326 325 323 323 320 323
303 303 303 304 302 302 300 299 297 297 298 300 302 303 305 306 311 311 315 313 314 319 319 320 320 318 317 317 319 320 325 323 322 325 325 327 329 327 327 326 324 324 320 322 325 327 327
303 303 303 303 302 303 300 298 297 297 298 301 304 307 308 306 306 309 313 312 319 318 317 318 319 319 317 317 317 319 324 323 322 325 326 328 329 328 327 324 325 324 320 322 328 327 328
303 303 303 302 300 303 300 299 296 297 299 303 310 310 313 314 307 308 309 314 315 320 321 320 318 319 319 319 319 318 323 324 323 322 325 328 330 329 328 325 323 324 324 322 324 324 325
302 302 303 302 299 302 300 300 296 297 300 308 312 311 312 314 308 312 309 314 315 318 319 318 319 320 319 320 318 317 320 324 326 324 322 325 327 325 328 325 325 323 322 323 319 327 330
302 302 303 302 300 300 301 300 297 296 300 306 315 313 316 315 311 307 310 311 314 317 317 317 317 319 321 324 322 316 317 324 325 326 322 322 323 326 329 325 325 324 323 321 318 320 322
301 302 303 300 300 300 302 300 298 297 299 305 309 318 316 313 309 306 309 312 312 314 313 314 317 319 320 322 324 328 318 320 324 324 324 321 322 324 329 326 326 324 324 320 326 325 324
301 302 300 300 301 300 303 300 298 297 302 303 306 315 316 314 308 307 308 312 313 312 313 314 317 319 318 322 323 326 325 322 325 325 327 324 322 324 325 323 325 329 329 323 320 320 323
301 300 300 301 301 301 302 300 297 297 304 304 308 321 309 308 306 311 312 314 317 319 314 314 316 318 317 320 322 323 323 325 323 324 331 328 325 322 323 325 327 328 327 327 322 324 324
299 300 300 301 300 302 302 301 297 298 309 306 310 318 313 316 310 310 312 313 314 317 318 317 317 318 318 321 320 327 327 326 325 325 323 322 327 327 327 328 327 328 329 329 328 327 329
299 299 299 300 300 301 301 301 299 297 310 311 310 309 308 311 314 315 310 311 314 315 319 316 317 318 324 327 327 327 328 329 331 328 321 319 325 327 325 331 330 331 330 330 330 334 328
299 299 299 299 300 301 302 301 301 296 304 307 310 311 308 312 313 314 316 318 319 318 319 326 325 323 327 326 325 324 321 321 326 329 330 331 324 323 324 330 333 329 329 330 335 341 339
299 299 299 299 300 301 302 301 301 299 298 303 308 308 308 314 313 314 313 315 319 321 325 325 324 325 325 322 323 324 321 319 320 320 327 331 332 331 333 332 336 330 329 343 347 346 343
299 298 299 300 299 300 302 302 301 299 298 304 307 307 306 310 312 312 312 314 319 319 322 324 324 321 319 320 323 321 320 321 322 322 322 326 324 327 331 332 330 329 336 337 340 347 343
299 298 299 301 298 298 301 302 302 300 297 303 309 308 304 307 310 310 310 310 314 315 318 323 320 318 318 317 320 327 322 322 323 323 320 319 322 324 326 330 332 328 334 336 338 346 341
298 298 298 300 298 298 299 300 301 301 297 302 308 308 306 305 306 308 309 309 309 315 317 318 316 320 316 316 319 320 322 323 323 323 322 318 319 324 326 328 327 326 325 333 335 330 339
297 298 298 298 298 298 299 299 300 299 297 300 308 307 308 302 302 306 306 307 306 310 316 315 319 320 323 318 318 318 318 318 321 320 323 322 321 323 324 328 328 341 346 340 336 339 336
298 297 298 297 298 299 298 298 299 297 295 298 301 308 307 307 304 308 309 310 309 308 310 310 317 316 325 329 327 325 319 320 321 323 324 326 321 322 321 323 337 340 341 337 337 341 341

GFSGBSN_925_thetae_033.txt.gz
Theta_e
311 312 310 308 305 304 304 304 304 304 304 305 305 306 306 306 306 307 307 308 309 309 309 309 313 318 318 324 328 333 319 317 319 323 326 326 324 324 326 324 326 334 333 332 332 331 330
310 311 310 308 307 304 304 304 304 304 304 304 304 305 306 306 306 307 308 309 309 309 309 309 313 318 322 320 332 327 320 319 322 326 326 324 323 325 325 324 326 328 326 328 329 331 331
309 310 308 309 308 305 304 304 304 304 304 304 304 305 305 306 306 307 308 309 309 309 310 310 313 318 324 314 328 327 322 323 325 325 323 321 322 325 324 325 324 324 329 327 328 329 332
309 308 309 308 308 307 303 303 303 303 303 303 303 304 305 306 306 307 308 309 310 310 311 311 315 324 324 324 326 327 326 325 326 326 325 323 323 323 325 323 321 322 321 325 326 328 328
308 308 307 307 307 306 303 302 302 302 302 302 302 303 304 305 306 307 308 309 311 313 312 314 324 327 324 325 324 326 328 326 326 326 325 322 322 320 320 321 319 318 322 322 322 325 330
308 308 308 308 307 305 304 302 302 301 301 301 301 302 303 304 305 307 309 311 320 323 322 326 325 316 319 324 324 323 327 328 325 321 320 321 317 319 317 318 320 322 322 321 324 329 331
306 306 306 306 306 305 303 301 300 301 301 301 301 301 303 304 305 307 309 316 314 315 318 320 319 315 319 323 324 321 323 325 323 319 319 318 319 320 319 320 321 322 321 320 321 325 330
306 305 305 305 305 304 303 300 300 300 300 300 300 301 302 304 305 307 312 314 316 314 313 314 316 320 321 322 324 322 324 325 322 321 321 318 318 318 321 322 322 322 320 319 321 324 326
305 305 305 304 305 305 302 299 299 299 299 300 300 301 302 304 306 311 310 315 313 313 313 315 316 316 317 321 322 323 323 323 322 322 321 320 321 323 324 324 323 320 321 321 323 322 322
304 304 304 304 305 303 301 299 298 298 299 299 300 301 302 304 310 309 313 314 314 315 312 315 317 316 318 320 321 324 324 325 324 323 321 321 321 323 323 325 321 323 320 325 326 323 323
304 304 304 305 303 303 301 298 298 298 298 299 300 301 302 303 306 309 312 314 315 315 310 316 317 318 316 320 321 321 323 323 324 322 321 323 325 326 326 324 322 322 324 325 325 321 321
304 304 304 304 303 303 301 297 297 297 298 299 301 302 303 306 306 310 311 315 316 314 314 319 318 317 318 319 320 320 322 323 323 324 323 321 324 326 326 324 322 323 323 320 320 318 322
303 303 304 303 302 304 300 298 297 297 298 300 302 304 307 306 307 312 311 311 311 315 315 318 318 317 316 317 319 319 323 322 322 322 322 324 326 327 326 325 323 320 318 320 321 324 326
303 303 303 303 302 302 301 298 297 297 298 301 304 308 310 308 306 306 312 312 312 312 315 316 317 316 317 316 317 318 321 322 321 324 323 326 327 328 326 324 324 323 319 320 325 324 325
302 303 303 303 302 302 302 299 296 297 298 302 306 312 308 309 309 307 308 311 312 315 319 318 317 318 317 317 318 317 318 320 321 321 322 326 328 327 326 325 323 323 323 320 319 320 323
302 302 303 301 302 302 303 299 296 296 298 303 307 314 310 314 307 310 308 310 312 315 316 316 318 318 320 317 316 315 317 320 323 322 320 323 326 325 326 324 322 321 319 321 317 325 327
302 302 301 301 302 302 303 299 296 296 299 304 312 312 314 310 311 305 308 308 312 313 314 316 316 317 318 322 316 314 316 319 322 323 320 321 322 324 325 324 324 322 321 317 316 318 321
302 301 301 301 301 302 303 300 296 297 300 303 307 314 313 309 306 302 307 310 311 312 311 313 313 314 317 319 322 325 316 318 322 321 322 320 319 323 324 325 323 323 322 318 321 325 321
301 301 301 301 301 302 302 300 296 298 304 303 305 309 313 311 309 306 306 310 312 312 311 312 314 316 317 318 322 323 322 322 322 321 321 320 320 323 324 322 323 326 325 320 316 316 321
300 301 301 301 301 302 301 300 296 298 309 305 309 319 309 305 303 308 311 310 313 316 313 312 313 314 316 320 320 322 322 323 321 328 337 324 317 322 324 324 325 327 327 324 320 322 322
300 301 301 301 301 302 301 300 296 299 308 308 309 314 310 314 311 311 309 310 312 313 316 314 315 316 317 320 321 326 328 327 326 330 320 320 326 325 323 326 326 328 329 328 327 325 328
300 301 301 301 301 301 302 301 297 298 307 309 308 307 306 308 311 313 311 311 312 311 314 317 315 323 323 326 325 326 325 326 330 326 320 317 325 324 325 329 329 329 327 328 332 338 330
299 299 301 301 301 301 302 301 299 297 305 306 307 308 307 310 311 311 312 312 314 316 317 325 325 324 325 325 323 323 321 319 323 327 331 329 320 319 321 330 327 323 330 334 342 342 340
299 299 299 302 301 301 301 302 301 298 299 303 306 305 308 313 311 312 312 313 315 316 323 324 321 323 323 321 322 319 318 318 319 318 323 328 329 326 329 327 325 325 340 338 345 345 341
298 298 298 300 301 300 301 301 301 299 298 303 305 305 304 309 310 310 311 310 315 314 321 322 320 318 314 318 320 319 319 320 321 319 322 321 322 325 328 328 326 337 342 335 337 345 342
299 298 297 298 301 299 301 301 301 300 297 304 306 307 302 306 309 309 310 309 312 315 316 319 317 313 314 315 320 322 320 320 321 321 316 319 318 323 324 328 329 326 331 338 330 330 341
301 298 298 298 298 299 301 300 300 299 295 302 306 306 304 303 303 306 308 308 305 310 314 315 314 320 315 315 318 320 322 320 323 321 320 316 317 321 326 326 325 324 332 331 327 323 339
301 298 297 298 297 298 299 300 299 297 294 298 305 305 305 302 302 304 306 306 306 307 312 312 317 321 325 317 317 316 316 316 319 319 321 319 318 319 321 323 324 341 347 334 326 338 335
301 299 298 298 298 298 298 299 298 295 294 296 299 300 305 304 303 308 308 309 307 307 307 309 316 315 321 325 323 322 319 318 318 320 322 326 319 320 320 321 335 336 340 339 332 338 337

GFSGBSN_925_thetae_036.txt.gz
Theta_e
310 310 311 309 307 304 304 304 304 304 304 304 305 305 305 306 306 307 307 308 309 309 309 310 310 314 319 319 324 333 318 317 321 324 325 324 323 324 325 324 324 334 332 331 331 331 331
310 309 309 309 308 305 304 304 304 304 303 303 304 305 305 305 306 306 307 308 309 309 310 310 310 314 319 315 326 329 319 318 322 325 325 323 322 323 324 324 325 325 324 324 326 330 330
309 309 308 308 308 307 304 304 303 303 303 303 302 304 305 305 306 307 307 309 309 310 310 310 310 316 321 312 321 328 322 321 323 324 323 321 321 324 323 325 322 322 323 324 327 328 331
308 308 308 308 307 306 303 303 303 303 302 302 302 302 304 304 305 306 308 309 309 311 311 311 313 325 323 320 325 327 325 324 325 325 324 324 321 321 323 322 319 320 320 322 323 327 328
308 308 307 307 307 305 303 302 302 302 302 301 301 301 303 304 305 306 308 309 312 321 314 312 323 326 320 321 324 324 327 326 325 325 323 321 320 319 319 320 318 316 320 321 321 324 327
306 306 306 307 306 305 302 301 301 301 301 301 301 301 302 303 305 306 309 313 320 323 322 325 325 314 315 322 324 323 325 327 325 321 318 319 315 318 316 317 320 322 321 320 320 323 329
306 306 306 306 305 305 303 300 300 300 301 300 301 301 302 303 305 307 311 317 312 314 315 318 316 312 316 321 323 320 324 325 321 318 318 316 317 316 318 320 320 321 321 320 319 320 328
305 305 306 305 306 304 303 300 299 299 300 300 300 301 302 303 305 307 313 310 311 311 312 312 313 317 319 321 321 322 324 324 322 321 319 316 317 317 320 321 322 322 321 318 319 321 325
305 304 304 305 304 304 302 299 299 299 299 299 300 301 302 304 305 311 310 313 311 311 311 313 314 315 317 319 319 321 321 322 321 320 320 318 319 321 322 322 323 320 318 320 323 321 321
305 305 304 304 304 304 303 298 298 298 298 299 300 301 302 304 309 307 312 312 312 312 309 312 315 315 316 318 321 322 322 323 323 323 319 320 320 322 323 322 321 323 319 322 325 324 324
304 304 304 304 303 303 302 298 298 298 298 298 300 301 303 304 304 309 312 312 313 311 309 314 316 316 315 318 320 320 322 323 323 321 319 321 323 323 324 325 321 322 321 325 322 320 320
304 304 304 304 303 303 301 298 297 298 298 298 300 302 304 306 305 307 310 313 314 310 311 315 317 316 318 319 319 320 322 322 321 322 322 321 322 324 324 324 321 321 320 318 317 317 321
303 303 304 304 302 302 301 298 297 297 298 299 301 303 306 307 305 311 308 309 311 311 311 316 316 316 315 317 319 319 321 321 320 320 321 323 325 326 326 324 322 319 317 319 319 321 323
303 303 304 302 302 302 300 298 296 297 297 300 303 304 309 309 306 306 311 310 310 310 312 314 317 315 316 316 317 318 320 319 320 321 321 323 323 326 324 324 322 321 318 318 322 322 324
302 303 302 302 302 302 302 297 297 297 298 301 304 308 310 307 308 306 307 310 310 311 317 316 315 317 316 316 317 317 316 317 319 319 321 324 327 326 326 324 323 322 322 317 318 318 322
302 302 302 302 302 302 302 298 296 296 299 302 307 313 312 312 310 309 306 309 310 312 314 315 317 316 319 319 315 314 315 316 319 319 319 322 325 324 325 322 321 322 318 321 317 324 325
302 302 302 302 301 302 300 297 296 296 301 303 311 309 311 308 309 304 307 306 310 311 311 314 315 315 316 319 314 313 314 317 319 320 319 320 322 324 323 323 322 321 320 315 315 316 320
301 302 301 301 301 302 301 297 296 298 305 304 305 311 312 308 305 301 306 309 310 310 310 310 312 313 315 317 320 314 315 316 319 318 320 319 318 322 323 323 322 321 320 317 321 323 319
301 301 301 301 300 301 302 297 296 300 307 306 304 308 311 310 309 305 305 308 310 311 310 310 312 313 315 316 319 322 321 320 320 319 320 319 319 322 323 322 323 325 322 317 314 315 322
301 302 302 301 301 301 302 298 296 301 307 307 309 315 308 303 301 308 311 310 311 312 311 311 311 313 314 316 319 321 324 322 323 325 334 322 316 321 323 324 323 326 326 320 319 323 320
301 301 301 301 301 301 302 302 296 301 309 308 306 310 308 313 309 312 310 310 311 311 312 313 313 312 316 317 322 326 327 326 325 326 319 319 321 321 321 322 324 325 327 324 325 322 327
300 299 300 302 301 301 301 302 298 300 308 308 306 306 305 307 309 311 310 312 311 312 310 314 316 314 316 321 321 326 324 325 328 325 319 318 323 323 326 328 328 328 327 326 331 326 326
299 299 300 302 301 301 301 302 299 297 306 305 305 306 304 308 310 310 310 312 312 312 314 316 325 323 324 324 323 323 321 316 321 327 330 323 319 319 325 330 323 323 330 335 341 341 338
299 298 298 300 302 301 301 301 300 296 301 305 304 303 306 310 311 312 312 311 314 315 316 322 321 322 320 318 320 317 317 316 317 317 322 327 327 322 329 323 323 321 338 335 340 343 339
300 298 298 299 301 301 301 301 301 295 299 305 305 303 302 307 310 311 311 310 313 314 317 319 318 316 311 316 317 318 317 318 319 316 319 320 322 325 326 323 325 340 341 335 333 337 339
301 299 298 298 300 300 301 301 301 296 297 305 305 305 300 303 308 309 309 308 308 311 316 316 315 313 312 313 318 319 320 318 320 320 315 316 318 324 323 328 329 327 329 334 323 324 338
301 301 298 297 298 299 301 301 300 296 295 303 305 304 302 301 301 305 307 308 305 308 314 312 313 318 314 313 317 320 321 320 320 320 319 316 317 324 326 325 324 322 329 332 324 323 334
301 301 299 298 297 298 300 300 299 296 294 298 303 300 303 300 301 303 305 305 305 306 310 310 316 320 323 315 316 315 316 316 317 317 319 317 320 320 321 322 323 339 343 329 324 334 335
301 301 300 298 297 298 299 299 298 295 294 296 299 298 302 302 302 306 306 307 307 306 304 306 316 316 319 321 321 319 319 317 316 319 320 324 318 321 319 319 329 333 337 338 333 336 334

GFSGBSN_925_thetae_042.txt.gz
Theta_e
309 310 309 309 306 304 304 304 304 304 303 303 304 305 305 306 307 307 308 309 309 310 310 311 311 311 321 326 332 331 319 319 322 325 326 328 329 330 334 334 333 337 336 334 335 335 337
309 309 309 309 307 304 304 304 304 303 303 303 303 304 304 305 306 307 308 309 309 310 311 311 311 312 323 323 324 328 319 320 324 326 326 327 328 329 332 332 334 332 333 333 334 335 337
308 308 309 309 307 304 303 303 303 303 303 302 303 304 304 304 306 307 308 309 310 310 312 313 311 314 323 321 323 326 322 322 325 326 328 325 325 328 331 333 330 331 335 335 334 333 335
308 308 308 308 307 304 301 302 302 302 302 302 302 303 304 305 306 307 308 309 310 313 317 314 312 324 322 320 323 324 326 325 326 327 326 325 324 327 329 330 331 335 336 336 332 329 332
307 307 308 307 306 304 302 301 301 301 301 301 301 302 304 305 305 307 308 310 316 319 319 313 324 325 321 319 323 325 326 326 326 326 324 323 326 328 328 332 336 336 338 333 332 330 330
307 306 306 307 306 305 303 300 300 300 300 300 301 302 303 304 305 307 309 315 319 320 322 323 325 324 321 323 324 324 326 327 327 326 325 326 327 328 330 333 336 336 335 333 332 329 329
306 306 306 306 305 305 303 300 299 300 300 300 300 302 303 304 305 307 313 318 322 325 321 323 323 320 319 323 323 325 326 326 326 325 325 326 326 326 331 333 330 332 333 333 330 329 330
305 305 305 305 305 304 301 300 299 299 299 300 300 301 303 304 305 309 314 320 317 315 321 321 320 321 321 321 324 325 326 326 325 325 325 324 324 326 326 327 328 331 333 332 329 331 331
305 305 305 306 304 303 301 299 299 299 299 300 300 302 303 304 306 313 316 316 312 313 321 321 320 320 321 321 323 325 326 326 325 324 324 323 325 324 324 326 328 331 332 330 329 331 331
305 305 305 305 303 303 301 299 299 299 299 299 300 301 303 304 310 310 317 313 312 313 321 321 319 320 320 323 322 324 325 326 325 324 324 323 324 324 325 326 327 329 329 328 328 329 331
304 304 304 304 303 302 300 298 298 299 299 299 300 302 303 304 311 313 315 312 313 315 320 318 319 319 321 322 324 324 325 327 326 325 324 323 323 324 326 326 326 329 327 328 329 329 330
304 304 304 303 302 301 299 297 298 298 299 300 301 302 304 309 310 310 310 311 316 321 318 320 321 320 321 322 323 325 325 326 327 327 325 325 326 327 326 329 329 329 330 330 329 328 328
304 303 303 303 301 300 299 297 297 298 299 300 302 303 304 306 312 309 310 317 321 320 318 320 321 321 321 322 322 324 326 327 326 327 328 325 326 326 328 330 329 329 329 329 329 328 329
303 303 303 303 301 300 300 297 297 297 299 301 304 304 308 308 311 310 314 320 321 319 319 319 320 321 322 321 322 323 325 326 326 326 326 326 325 327 329 330 329 329 329 328 331 328 329
302 303 303 302 302 301 302 298 296 297 300 307 305 311 313 311 311 311 319 320 319 319 319 320 320 320 322 322 321 323 323 325 326 326 326 325 325 327 329 329 331 330 329 330 331 329 327
302 303 302 302 302 301 301 297 296 298 304 311 311 318 314 312 312 312 319 319 319 316 319 319 320 321 323 323 321 322 323 323 324 325 327 329 328 327 329 329 329 331 331 329 329 332 331
302 302 303 302 302 301 300 296 296 300 310 309 316 318 311 310 309 317 318 318 317 316 317 318 321 321 322 324 323 323 324 323 324 324 326 326 329 329 330 331 331 331 331 331 331 332 332
302 302 302 302 302 301 298 296 296 302 311 309 316 318 312 311 315 316 317 317 309 315 315 316 317 319 320 322 324 324 323 323 323 325 326 327 329 329 328 330 329 331 332 332 332 336 331
301 301 302 302 302 302 298 295 296 304 310 312 321 318 312 313 314 315 315 314 314 314 315 315 316 317 320 322 324 325 327 323 323 324 325 328 328 331 330 331 330 331 330 333 336 337 335
300 300 301 302 301 302 300 295 297 305 309 311 322 319 314 314 316 316 316 316 315 314 313 314 315 316 317 319 323 326 327 326 326 325 330 329 328 331 328 330 331 334 332 331 333 333 336
299 299 300 301 301 301 299 295 297 306 309 311 319 320 318 316 316 319 319 318 316 315 314 317 317 316 318 321 322 325 329 330 329 330 327 327 331 330 328 330 329 332 331 330 334 333 333
299 299 299 301 302 302 300 295 297 306 308 314 319 320 318 321 320 320 316 321 320 319 318 316 317 319 319 320 323 329 329 332 330 330 330 329 333 329 328 327 327 329 331 331 332 333 333
300 298 298 299 301 302 302 296 297 305 308 311 311 313 316 315 320 320 320 320 319 318 319 317 319 320 323 324 322 327 329 331 334 335 334 333 331 335 328 329 329 330 331 331 332 332 333
300 300 298 298 299 302 301 297 295 305 306 309 308 311 316 320 320 319 317 317 319 319 321 322 324 326 326 324 326 328 326 328 329 334 337 337 338 335 329 335 333 335 335 332 335 336 338
301 301 299 298 298 300 301 298 295 297 306 308 308 310 313 316 317 318 317 318 320 322 322 322 324 324 324 325 330 332 331 331 330 331 335 336 337 336 337 334 337 339 341 339 339 337 339
301 301 300 298 298 299 300 299 295 295 301 308 306 307 310 313 315 314 316 316 319 322 324 325 323 324 323 328 330 332 328 328 331 331 331 335 341 336 336 334 336 339 339 338 336 338 339
301 301 301 299 297 298 298 297 295 295 295 305 306 305 309 311 311 313 316 315 314 318 323 323 321 327 327 328 328 327 325 328 327 330 333 334 334 332 334 334 335 336 338 335 334 341 340
301 301 301 299 298 297 298 297 295 295 295 300 306 303 307 311 311 309 310 313 313 314 320 319 325 328 328 328 328 327 326 327 329 331 332 332 331 332 334 333 335 339 340 337 347 347 345
301 301 301 300 299 297 297 298 296 295 295 298 303 302 303 308 310 309 307 308 309 309 312 315 323 323 323 331 329 328 328 328 332 328 331 333 338 333 336 338 345 344 349 348 349 349 346

GFSGBSN_925_thetae_045.txt.gz
Theta_e
310 310 309 308 305 304 304 304 304 304 304 304 305 306 306 306 307 308 308 309 309 310 311 312 312 313 320 331 334 330 319 321 324 326 327 329 330 333 335 337 337 340 338 337 336 335 336
309 309 309 308 306 304 304 304 304 303 303 303 304 305 306 306 307 307 307 309 310 310 311 312 313 312 330 326 330 329 323 323 326 327 327 328 331 333 334 336 337 338 337 336 335 336 336
309 309 309 308 307 303 302 303 303 303 303 303 303 304 305 306 307 307 308 309 310 311 313 316 313 314 325 324 323 329 325 324 326 327 329 328 328 330 334 336 337 336 337 336 336 335 334
308 307 308 308 307 304 301 301 302 302 302 302 303 304 305 305 306 307 308 309 310 315 317 318 314 324 326 322 323 325 327 326 326 327 327 328 328 329 332 335 335 337 337 336 335 332 333
307 307 308 308 307 304 301 300 301 301 301 301 301 303 304 305 306 307 309 310 314 318 320 319 325 330 325 320 322 323 326 326 327 327 327 326 327 329 333 334 337 337 338 342 334 332 331
306 307 307 307 306 305 302 300 300 300 300 301 301 302 304 305 306 307 309 312 316 318 326 326 326 325 324 323 325 325 325 326 327 328 327 327 327 329 332 334 337 337 337 340 334 333 330
306 306 306 307 304 303 300 300 300 300 300 300 301 302 303 304 306 307 311 321 325 329 324 323 326 324 323 323 324 324 325 326 327 327 327 327 327 328 330 333 334 334 336 335 334 332 331
306 305 307 306 304 302 299 300 300 300 300 300 301 302 303 304 306 308 315 323 321 318 322 323 323 323 323 323 325 326 326 326 326 326 326 327 326 327 329 331 333 332 333 333 334 331 331
305 305 305 305 303 302 300 299 300 300 300 300 301 302 303 304 306 313 319 320 318 319 322 323 323 322 323 322 323 325 326 327 326 326 326 326 327 327 326 328 331 331 332 333 333 333 332
305 305 305 304 303 301 299 298 299 299 300 300 301 301 303 305 311 314 319 318 318 319 323 323 322 322 323 323 323 325 326 327 326 326 325 326 326 326 325 326 329 331 331 331 330 330 331
304 305 305 304 303 300 299 298 299 299 300 300 301 301 303 304 311 315 319 317 318 320 323 323 322 323 324 323 325 324 326 327 327 326 326 326 324 325 325 327 327 327 330 330 329 330 331
304 304 304 303 302 299 299 298 298 299 299 300 301 303 304 313 314 314 314 317 320 323 322 322 323 321 322 323 324 326 326 327 327 327 327 326 327 326 325 326 327 328 330 330 330 330 331
303 304 304 303 300 299 299 298 298 298 299 300 302 305 304 310 317 314 315 319 322 323 323 322 322 323 323 323 323 325 326 326 327 328 329 326 326 326 327 328 329 328 329 331 332 331 329
303 303 304 302 300 298 298 298 298 298 300 302 308 306 313 310 314 313 317 321 323 323 323 323 323 324 323 324 324 324 325 326 327 327 327 328 326 326 327 328 330 328 329 331 332 331 332
302 303 304 303 300 298 298 298 298 298 301 309 309 314 315 315 313 314 321 322 323 324 322 321 322 322 323 324 324 324 325 326 327 327 328 327 327 328 328 329 330 332 329 330 330 331 332
301 303 303 302 301 299 298 297 297 298 304 312 312 316 317 314 314 314 320 321 322 321 320 321 322 323 323 324 324 324 325 325 326 327 328 328 330 328 328 330 330 331 332 330 330 331 334
301 302 302 302 301 298 297 297 297 299 307 311 314 320 316 313 312 316 320 322 321 321 320 320 321 322 323 326 325 324 324 325 325 326 327 327 330 329 329 330 330 330 331 332 331 333 333
301 301 301 302 301 299 297 296 296 301 309 314 317 319 314 312 315 317 321 323 311 320 318 319 320 322 323 324 325 326 325 326 325 325 325 327 328 329 331 330 330 331 332 331 333 335 333
300 300 301 302 302 300 297 296 296 304 307 313 322 320 314 314 316 318 320 320 319 318 318 318 318 320 322 323 325 326 326 326 324 324 326 327 328 331 330 330 330 331 332 333 334 335 338
300 300 300 301 302 300 297 296 297 305 307 312 323 319 316 315 317 319 319 319 318 317 317 317 318 319 320 322 324 327 326 327 325 325 336 329 329 330 330 330 331 332 330 330 331 335 335
300 299 299 300 300 299 297 296 298 305 308 312 321 322 322 317 317 318 319 319 319 319 317 317 317 318 320 322 323 325 325 328 329 331 327 327 331 330 329 330 331 332 332 331 330 333 334
300 299 298 298 298 298 297 296 299 305 308 316 322 321 318 321 322 319 317 321 321 320 320 320 318 319 319 321 324 327 328 328 330 330 330 328 331 331 330 329 329 331 331 332 330 331 332
300 300 298 298 299 299 297 296 297 305 310 314 316 318 321 319 321 321 321 321 322 320 321 321 320 319 320 323 324 325 327 331 333 337 334 333 332 333 332 329 329 329 330 332 332 332 333
300 301 299 298 298 299 300 296 296 304 309 312 312 315 319 321 321 320 320 320 320 321 322 322 320 322 324 328 328 326 325 327 329 332 333 338 339 337 332 332 331 329 330 330 332 332 333
300 301 300 299 298 299 300 297 296 298 308 311 311 314 318 320 320 321 320 320 321 322 322 322 323 326 327 328 327 327 326 328 329 329 334 334 339 335 334 332 330 335 334 333 333 333 335
301 301 301 299 298 298 299 297 295 296 304 310 309 311 315 317 318 319 320 320 322 323 324 323 325 326 328 326 326 328 327 327 330 330 332 334 338 339 335 333 336 333 336 335 334 338 338
301 301 301 300 299 298 298 297 296 295 297 308 310 309 313 315 315 314 319 319 319 322 324 327 326 328 329 327 326 326 327 326 328 331 333 334 337 337 336 334 336 340 339 339 341 342 340
301 301 301 301 299 297 298 298 296 295 296 305 309 306 310 314 314 312 313 316 317 318 323 324 327 330 330 329 326 326 327 327 328 335 338 334 335 333 334 338 341 338 340 340 347 344 339
300 301 301 301 300 299 297 298 296 295 295 304 308 307 307 311 313 311 310 310 311 313 316 321 328 329 328 331 331 332 331 330 332 331 332 334 341 341 338 346 345 347 354 350 349 346 343

GFSGBSN_925_thetae_048.txt.gz
Theta_e
311 310 310 309 306 304 304 304 304 304 304 304 305 306 306 307 306 307 308 309 309 310 311 312 313 314 317 333 332 324 320 318 319 322 327 330 330 331 333 335 336 337 340 338 336 335 335
309 309 310 308 307 303 303 303 303 303 303 303 304 305 306 307 306 307 308 309 310 310 312 313 315 313 329 328 330 326 324 323 324 326 328 329 330 331 333 334 336 338 339 337 335 336 335
308 308 308 308 306 303 302 302 302 302 302 302 303 305 306 305 306 307 309 309 310 311 314 315 316 313 325 324 324 330 326 324 326 327 329 329 329 330 332 334 336 337 337 336 336 335 334
308 308 308 308 305 302 301 301 301 301 301 301 302 304 305 305 306 307 309 310 310 312 316 318 317 321 326 325 324 325 328 327 326 326 327 329 329 330 331 333 335 336 336 338 338 339 333
307 308 307 308 304 303 301 301 301 301 301 301 301 303 304 305 306 307 309 310 311 313 317 319 323 329 328 324 322 322 326 327 327 327 328 327 328 328 331 332 334 335 337 340 337 338 332
307 307 307 307 305 302 300 300 300 301 301 301 301 302 303 304 305 307 310 312 314 318 321 325 326 326 325 324 324 325 326 327 328 328 328 328 326 326 329 331 334 338 340 340 342 338 332
307 306 307 307 304 302 300 300 300 300 301 301 301 302 303 304 305 307 309 319 326 330 322 325 327 324 325 324 325 325 325 326 326 327 328 328 326 326 328 331 332 333 340 343 341 340 331
306 306 305 306 303 300 299 299 299 300 300 301 301 302 303 304 306 308 308 325 322 321 322 324 326 325 325 324 325 325 325 326 326 325 327 327 327 327 328 330 331 333 334 338 339 335 332
306 306 306 305 304 300 299 299 299 299 300 301 301 302 303 305 306 309 318 321 320 320 321 322 323 324 324 324 323 324 327 326 326 326 326 326 327 328 327 328 329 332 333 332 332 334 333
305 306 305 305 304 301 299 299 299 299 300 301 301 302 303 305 312 318 317 321 319 320 322 322 323 324 324 324 323 324 327 326 326 326 326 326 328 327 327 326 327 328 330 331 331 332 330
304 305 305 304 303 301 299 299 299 299 299 300 301 302 304 304 308 317 321 319 319 321 323 325 324 325 324 323 325 324 325 327 326 327 326 326 326 326 326 326 326 329 329 331 331 329 330
303 304 305 304 302 300 298 299 298 299 299 300 301 302 305 313 315 313 316 318 320 322 322 324 324 323 323 324 324 326 325 327 327 326 328 326 328 326 326 326 327 328 328 330 330 330 331
302 303 304 303 302 299 298 298 298 298 299 300 302 306 307 308 318 317 315 319 322 322 323 323 323 324 323 323 323 325 325 326 325 327 328 328 327 327 327 325 327 327 328 331 332 331 331
302 302 303 303 302 299 298 298 298 298 299 302 305 309 308 310 313 316 316 320 323 323 323 325 324 324 323 324 324 324 326 326 326 326 327 328 327 326 327 326 328 330 328 331 336 334 338
301 303 304 303 301 300 298 298 298 298 299 304 309 313 314 317 312 314 319 321 322 324 324 324 324 323 324 324 324 324 325 326 327 326 329 328 328 329 327 327 327 330 329 328 330 331 333
300 301 302 302 302 300 299 297 297 298 301 306 311 314 318 316 315 315 319 321 321 323 323 323 323 324 323 324 324 324 325 326 326 328 328 328 329 329 328 328 328 329 331 331 329 336 337
300 301 301 301 302 300 300 297 297 298 303 309 312 321 319 316 315 317 319 320 321 323 323 322 322 323 323 324 325 325 324 326 326 327 328 327 328 330 328 328 329 330 330 333 332 332 337
299 301 301 301 302 301 300 297 296 300 305 315 318 321 318 314 315 317 320 322 322 323 322 321 321 322 324 325 326 327 325 326 327 326 326 327 327 330 330 329 330 330 330 330 332 339 335
299 300 300 300 301 299 298 297 296 304 306 311 322 321 318 314 314 316 318 321 324 323 322 321 320 321 322 324 326 327 327 326 326 326 327 328 327 328 330 330 332 330 330 331 335 340 341
299 299 299 299 300 299 297 297 296 304 306 309 324 321 318 316 316 318 321 321 323 321 321 320 320 320 321 321 324 326 327 327 326 325 333 329 330 333 327 332 330 333 330 330 333 337 336
300 299 299 299 299 299 297 297 297 304 307 309 321 324 323 317 316 316 320 321 321 321 320 320 319 319 320 321 323 324 325 327 328 326 326 328 337 330 330 329 330 331 332 332 330 331 333
300 300 299 298 299 298 297 297 297 304 309 314 323 323 323 322 323 319 317 319 321 321 321 321 320 320 320 321 322 324 324 326 328 329 328 327 335 332 330 329 329 329 332 337 336 331 330
299 301 300 299 298 298 297 297 297 304 311 318 317 317 320 321 320 322 321 321 321 321 322 322 322 321 321 322 322 322 325 327 332 335 340 336 333 338 333 329 329 331 329 330 330 332 330
299 300 301 299 298 298 298 296 296 299 304 311 316 316 320 320 323 321 320 322 321 322 322 322 323 323 323 327 327 326 325 326 328 331 333 343 350 338 335 338 334 331 330 329 330 332 340
300 300 301 300 299 298 298 297 296 296 304 309 313 315 319 320 322 321 322 321 321 321 322 321 324 323 327 328 328 327 328 329 326 327 329 332 340 339 340 334 332 331 331 330 329 332 345
300 300 301 301 299 298 298 297 296 296 298 309 314 311 316 319 320 321 322 321 321 323 324 323 321 325 326 328 328 333 327 326 326 325 328 331 345 339 341 336 336 336 340 337 338 340 343
300 301 301 301 300 299 298 298 296 296 296 303 312 310 314 317 316 316 319 321 321 322 324 329 328 327 326 327 326 326 325 325 327 332 335 335 339 339 338 337 336 342 337 339 350 351 341
300 300 301 301 301 300 297 298 297 296 296 301 312 309 311 317 316 315 315 318 319 320 322 323 327 327 328 330 327 327 329 330 331 333 337 337 339 338 340 339 341 350 337 341 343 338 343
301 300 301 301 301 300 298 297 297 296 296 299 311 310 309 311 315 313 312 312 313 315 317 321 324 330 330 332 334 334 330 335 338 337 335 337 347 343 343 345 343 346 352 352 350 352 349